This is the latest recevied weather packets stored in our database for station/object K7SPS-10. If no packets are shown the sender has not sent any weather packets the latest 10 day(s).
| Time | Temp. | Humidity | Pressure | Rain* | Wind** | Luminosity | Snow |
|---|---|---|---|---|---|---|---|
| 1778265715 | 22.78° C | 31% | 1016.8 hPa | 0 mm | - | 803 W/m² | - |
| 1778265412 | 22.78° C | 30% | 1017.1 hPa | 0 mm | - | 831 W/m² | - |
| 1778265108 | 22.78° C | 32% | 1016.7 hPa | 0 mm | - | 819 W/m² | - |
| 1778264804 | 22.22° C | 30% | 1017 hPa | 0 mm | - | 761 W/m² | - |
| 1778264501 | 22.22° C | 31% | 1016.9 hPa | 0 mm | - | 743 W/m² | - |
| 1778264196 | 22.78° C | 29% | 1016.8 hPa | 0 mm | - | 726 W/m² | - |
| 1778263894 | 22.22° C | 30% | 1017.1 hPa | 0 mm | - | 760 W/m² | - |
| 1778263591 | 22.22° C | 30% | 1017 hPa | 0 mm | - | 559 W/m² | - |
| 1778263288 | 22.22° C | 32% | 1017.1 hPa | 0 mm | - | 741 W/m² | - |
| 1778262984 | 21.67° C | 32% | 1017.3 hPa | 0 mm | - | 666 W/m² | - |
| 1778262681 | 21.67° C | 30% | 1017 hPa | 0 mm | - | 629 W/m² | - |
| 1778262378 | 21.67° C | 32% | 1017.1 hPa | 0 mm | - | 588 W/m² | - |
| 1778262075 | 21.67° C | 34% | 1017.5 hPa | 0 mm | - | 682 W/m² | - |
| 1778261772 | 21.11° C | 35% | 1017.4 hPa | 0 mm | - | 696 W/m² | - |
| 1778261468 | 21.67° C | 37% | 1017.3 hPa | 0 mm | - | 697 W/m² | - |
| 1778261166 | 20.56° C | 35% | 1017.4 hPa | 0 mm | - | 683 W/m² | - |
| 1778260862 | 20.56° C | 35% | 1017.5 hPa | 0 mm | - | 668 W/m² | - |
| 1778260559 | 20° C | 38% | 1017.4 hPa | 0 mm | - | 670 W/m² | - |
| 1778260255 | 20° C | 36% | 1017.3 hPa | 0 mm | - | 671 W/m² | - |
| 1778259952 | 20° C | 38% | 1017.3 hPa | 0 mm | - | 659 W/m² | - |
| 1778259650 | 19.44° C | 39% | 1017.4 hPa | 0 mm | - | 635 W/m² | - |
| 1778259347 | 19.44° C | 40% | 1017.4 hPa | 0 mm | - | 532 W/m² | - |
| 1778259044 | 19.44° C | 41% | 1017.4 hPa | 0 mm | - | 497 W/m² | - |
| 1778258740 | 19.44° C | 41% | 1017.4 hPa | 0 mm | - | 598 W/m² | - |
| 1778258437 | 18.89° C | 42% | 1017.5 hPa | 0 mm | - | 576 W/m² | - |
* Rain latest hour (hover to see other rain measurements)
** Current wind speed in m/s (hover to see current wind gust speed)